User: anonymous   Login
Location: Chena
(64.8152°N, 147.9227°W)
Time: 11:10:42
(UTC+00:00)
Language:

Tiros 1 despin weight - Orbit

View from above orbital plane
View from above orbital plane
View from above satellite
View from above satellite

Ground track
Ground track

The orbit data is extracted from the following two-line orbital elements,

1 00115U 60002D   21059.44114588  .00000071  00000-0  35363-4 0  9999
2 00115  48.1664 123.1840 0034911 296.2179  63.5146 14.83707519229824
Epoch (UTC): 28 February 2021 10:35:15
Eccentricity: 0.0034911
inclination: 48.1664°
perigee height: 593 km
apogee height: 642 km
right ascension of ascending node: 123.1840°
argument of perigee: 296.2179°
revolutions per day: 14.83707519
mean anomaly at epoch: 63.5146°
orbit number at epoch: 22982

The dashed part of the orbit path shows where the satellite is in the earth's shadow,  

DLR